Regional Weather Roundup
Issued by NWS Grand Forks, ND

Home | Current Version | Previous Version | Text Only | Print | Product List | Glossary Off
Versions: 1 2 3 4 5 6 7 8 9 10 11 12 13 14 15 16 17 18 19 20 21 22 23 24 25 26 27 28 29 30 31 32 33 34 35 36 37 38 39 40 41 42 43 44 45 46 47 48 49 50

000
ASUS43 KFGF 051510
RWRFGF
PRAIRIE TO PINES  WEATHER ROUNDUP
NATIONAL WEATHER SERVICE EASTERN NORTH DAKOTA/GRAND FORKS ND
1000 AM CDT SUN JUL 05 2015

 **SATELLITE DATA USED TO AUGMENT SKY COVER AT AUTOMATED STATIONS**
 *****  WEATHER ACROSS EASTERN NORTH DAKOTA  *****

CITY           SKY/WX    TMP DP  RH WIND       PRES   REMARKS
GRAND FORKS    CLOUDY    74  68  81 S10       29.73R
GRAND FRKS AFB PTSUNNY   73  68  85 S9        29.74R
GRAND FRKS NWS   N/A     73 N/A N/A S10         N/A
DEVILS LAKE    CLOUDY    66  61  82 N16       29.76R THUNDER
FARGO          SUNNY     77  67  71 S10G18    29.73F
WAHPETON ARPT  SUNNY     75  64  69 S14       29.74F
$$

 ***** WEATHER ACROSS CENTRAL AND WESTERN NORTH DAKOTA  *****

CITY           SKY/WX    TMP DP  RH WIND       PRES   REMARKS
BISMARCK       CLOUDY    69  63  81 N14G24    29.83R
MINOT          CLOUDY    65  62  90 N5        29.83S FOG
JAMESTOWN      CLOUDY    75  68  78 SW5       29.77R
MINOT AFB      CLOUDY    66  66 100 E2        29.82S
GARRISON         N/A     64  62  93 NE10      29.79F
WILLISTON      CLOUDY    69  60  73 N18       29.89S HAZE
DICKINSON      LGT RAIN  63  59  87 E13       29.85S
HETTINGER      TSTM      63  60  90 NE31G37   29.81F
$$

 *****  OTHER AIRPORT OBSERVATIONS IN OUR AREA  *****

CITY           SKY/WX    TMP DP  RH WIND       PRES   REMARKS
WALHALLA       FAIR      64  64 100 MISG      29.78R
GRAFTON AIRPOR PTSUNNY   68  68 100 NE6       29.74R FOG
VALLEY CITY AR FAIR      75  70  83 S16G23    29.76R
CANDO          HVY RAIN  64  63  94 N14       29.83F VSB 3/4
CAVALIER APRT  LGT RAIN  64  64 100 N9        29.74F
GWINNER        FAIR      81  70  69 S18       29.76R
SHEYENNE NWR     N/A     79  69  72 S10       29.95S
ROLLA          LGT RAIN  61  61 100 NE3       29.87R VSB 1
 ***** THE ABOVE OBSERVATIONS ARE NON NWS ARE NOT QUALITY
       CONTROLLED AND MAY MIS-REPORT RAIN FOR SNOW...
$$

  *****  WEATHER ACROSS NORTHERN MINNESOTA  *****

CITY           SKY/WX    TMP DP  RH WIND       PRES   REMARKS
FLAG ISLAND    NOT AVBL
WARROAD        CLOUDY    68  64  88 CALM      29.77F
ROSEAU         CLOUDY    66  63  88 CALM      29.76F
HALLOCK        CLOUDY    68  66  94 N6        29.75R
THF RVR FALLS  PTSUNNY   72  66  83 N8        29.77R
BAUDETTE       MOSUNNY   73  65  75 N6        29.78R
WASKISH        CLOUDY    72  66  83 SE5       29.76F
CROOKSTON      MOSUNNY   75  70  83 S12       29.74R
$$
  *****  WEATHER ACROSS CENTRAL AND WEST MINNESOTA  *****

CITY           SKY/WX    TMP DP  RH WIND       PRES   REMARKS
FOSSTON        MOSUNNY   75  66  73 S14       29.74F
BEMIDJI        CLOUDY    73  66  80 S14       29.77F
PARK RAPIDS    MOSUNNY   76  64  66 S15       29.79F
ELBOW LAKE     FAIR      74  66  74 S14       29.77F
WADENA         SUNNY     73  64  73 S13       29.80F
DETROIT LAKES  SUNNY     77  64  65 S13       29.78F
MOORHEAD       SUNNY     75  66  73 S9        29.75S
FERGUS FALLS   SUNNY     75  64  69 S16       29.75F
MORRIS MN      SUNNY     79  66  65 SE10      29.77F
STAPLES        MOSUNNY   73  63  68 S14       29.81F
$$
  *****  WEATHER ELSEWHERE ACROSS MINNESOTA  *****

CITY           SKY/WX    TMP DP  RH WIND       PRES   REMARKS
DULUTH         PTSUNNY   71  61  70 SW12      29.90F
INTRNTL FALLS  MOSUNNY   74  67  78 S6        29.80F HAZE
ELY            PTSUNNY   73  61  64 SW10G17   29.87F
CLOQUET        PTSUNNY   72  63  73 S7        29.89F
WHEATON        SUNNY     75  66  73 S8        29.76F
BRAINERD       PTSUNNY   75  63  66 S14       29.83F
HIBBING        CLOUDY    73  64  73 S10       29.85F
ALEXANDRIA     MOSUNNY   75  64  68 S12       29.83F
SAINT CLOUD    PTSUNNY   73  63  70 S13       29.86F
MINNEAPOLIS    CLOUDY    75  61  61 S10       29.91F
$$

  *****  WEATHER ACROSS SOUTH DAKOTA  *****

CITY           SKY/WX    TMP DP  RH WIND       PRES   REMARKS
SIOUX FALLS    MOSUNNY   73  67  81 SE13      29.85F
BROOKINGS      SUNNY     73  66  78 S13G18    29.84F
WATERTOWN      MOSUNNY   77  65  66 S15G24    29.79F
HURON          SUNNY     76  66  71 S21G33    29.75F
SISSETON         N/A     80  66  62 S20       29.73F
ABERDEEN       MOSUNNY   77  67  71 MISG      29.75R
MITCHELL       SUNNY     79  68  69 S15G24    29.80F
PIERRE         SUNNY     77  69  76 SE16      29.72S
MOBRIDGE       PTSUNNY   79  71  76 VRB6      29.76R
RAPID CITY     SUNNY     78  66  66 NW13G21   29.80R
$$

  *****  SOME WEATHER IN NEARBY STATES *****

CITY           SKY/WX    TMP DP  RH WIND       PRES   REMARKS
GLASGOW MT     MOSUNNY   65  49  56 N21G28    30.02R
GREAT FALLS MT LGT RAIN  51  51 100 N9        30.16R FOG
CHEYENNE WY    SUNNY     80  49  33 W24G32    30.03S
SCOTTSBLUFF NE MOSUNNY   78  64  61 CALM      29.87S
OMAHA NE       CLOUDY    71  65  81 SE8       29.95R
DES MOINES IA  CLOUDY    75  66  73 S7        30.00R
DAVENPORT IA   SUNNY     75  64  68 S7        30.07S
CHICAGO IL     SUNNY     77  60  55 SW6       30.08S
EAU CLAIRE WI  MOSUNNY   76  62  62 S12       29.98F
LA CROSSE WI   SUNNY     75  63  66 S8        30.01S
$$

  *****  SOME NATIONAL WEATHER *****

CITY           SKY/WX    TMP DP  RH WIND       PRES   REMARKS
LA GUARDIA NY  PTSUNNY   77  61  57 N5        30.12S
RALEIGH NC     PTSUNNY   83  72  69 SW7       30.13S
ATLANTA GA     PTSUNNY   75  66  73 W10       30.15F
NEW ORLEANS LA CLOUDY    85  75  72 SW9       30.12R HX  93
OKLAHOMA CITY  MOSUNNY   84  73  69 SW13      30.00R HX  90
ALBUQUERQUE NM PTSUNNY   73  57  57 SW6       30.16S
SALT LAKE CITY CLOUDY    75  62  64 N3        30.03R
LOS ANGELES CA CLOUDY    64  60  87 W8        29.99R
BOISE ID       CLOUDY    80  53  39 N6        29.89R
SEATTLE WA     MOSUNNY   73  54  51 W5        29.85R
$$

*** WEATHER ACROSS MANITOBA...SASKATCHEWAN AND ONTARIO ***
                ***ONTARIO***

CITY           SKY/WX    TMP DP  RH WIND       PRES   REMARKS
GERALDTON      CLOUDY    66  59  77 SW12      29.89F
THUNDER BAY    CLOUDY    63  55  77 E8        29.92F
SIOUX LOOKOUT  PTSUNNY   72  64  78 S6        29.82S
TORONTO        MOSUNNY   73  57  56 SE7       30.12S
BIG TROUT LK   SUNNY     64  57  77 W9        29.69F HAZE
PICKLE LAKE    PTSUNNY   70  61  73 W12G17    29.79S
DRYDEN         MOSUNNY   72  64  78 S8        29.81F
KENORA         CLOUDY    68  64  88 CALM      29.80F
$$
                *** MANITOBA***

CITY           SKY/WX    TMP DP  RH WIND       PRES   REMARKS
BRANDON        CLOUDY    63  61  94 N6        29.83S FOG
DAUPHIN        MOSUNNY   63  57  82 NW6       29.82F HAZE
ISLAND LAKE    CLOUDY    61  57  88 W7        29.71F SMOKE
PILOT MOUND      N/A     64  61  88 N8          N/A
THE PAS        CLOUDY    55  45  67 N12G18    29.83R
THOMPSON       LGT RAIN  48  43  81 W9        29.74S
WINNIPEG       CLOUDY    66  64  94 N7        29.78S FOG
LYNN LAKE      LGT RAIN  45  43  93 N16G28    29.86R
CHURCHILL      LGT RAIN  39  39 100 NE31G39   29.71R FOG
$$
                ***SASKATCHEWAN***

CITY           SKY/WX    TMP DP  RH WIND       PRES   REMARKS
ESTEVAN        CLOUDY    63  61  94 W8        29.89S SMOKE
KINDERSLEY     PTSUNNY   57  52  82 NW10G20   30.05F
LLOYDMINSTER   CLOUDY    55  48  76 NW10G17   30.06R SMOKE
PRINCE ALBERT  CLOUDY    57  50  77 NW14      29.94R SMOKE
REGINA         CLOUDY    61  55  82 NW17G24   29.95R SMOKE
YORKTON        CLOUDY    59  52  77 W5        29.89S HAZE
N. BATTLEFORD  PTSUNNY   57  48  72 NW13G22   30.04R HAZE
LA RONGE       NOT AVBL
SASKATOON      MOSUNNY   59  50  72 NW10      30.00R
SWIFT CURRENT  MOSUNNY   55  50  82 W12       30.05S
$$
NOTE: THESE ARE AUTOMATED STATIONS WITH LIMITED QUALITY CONTROL
      "FAIR" INDICATES FEW OR NO CLOUDS BELOW 12,000 FEET WITH NO
      SIGNIFICANT WEATHER AND/OR OBSTRUCTIONS TO VISIBILITY.
      SKY/WX - SKY CONDITION AND SIGNIFICANT WEATHER.
      TMP - AIR TEMPERATURE.    DP   - DEWPOINT TEMPERATURE.
      RH  - RELATIVE HUMIDITY.  PRES - PRESSURE.
      HX  - HEAT INDEX.         WCI  - WIND CHILL INDEX.
$



USA.gov is the U.S. government's official web portal to all federal, state and local government web resources and services.